Location: Edendorf
(53.9516°N, 9.4972°E)
Time: 05:58:19
(UTC+00:00)

Daily predictions for brighter satellites

Satellite Brightness Start Highest point End
(mag) Time Altitude Azimuth Time Altitude Azimuth Time Altitude Azimuth
Landsat 4 3.6 00:00:09 10° NNE 00:03:59 88° WNW 00:04:39 59° SSW
SL-16 R/B 3.3 00:01:19 10° NNW 00:06:47 43° NE 00:12:12 10° ESE
Cosmos 1025 Rocket 3.0 00:06:29 10° N 00:10:47 74° ENE 00:12:13 41° SSE
COSMOS 2487 3.7 00:10:12 28° W 00:11:07 34° WNW 00:14:18 10° N
CZ-4 R/B 3.9 00:07:29 10° NNE 00:12:29 88° ESE 00:14:24 39° SSW
NOSS 0 Rocket 3.9 00:06:33 10° NW 00:12:45 67° WSW 00:15:54 30° SSE
CZ-2D R/B 3.6 00:08:41 10° NNE 00:13:23 28° E 00:16:30 17° SE
COSMOS 2428 3.2 00:09:49 10° NW 00:15:11 42° WSW 00:16:52 34° SSW
NOSS 3-2 (C) 4.4 00:10:03 10° W 00:16:01 50° NNW 00:22:58 10° NE
ADEOS II 4.4 00:13:31 10° NE 00:16:08 14° E 00:18:44 10° ESE
Meteor 1-29 3.4 00:12:51 10° NNE 00:16:15 48° E 00:16:43 44° SE
GEOS 3 Rocket 4.5 00:11:18 10° ENE 00:16:19 37° ESE 00:18:02 30° SSE
Cosmos 2360 Rocket 4.0 00:13:15 10° WNW 00:16:34 16° W 00:17:41 15° WSW
Lacrosse 4 Rocket 1.6 00:17:22 38° WSW 00:18:55 70° NW 00:23:06 10° NE
Cosmos 1544 4.0 00:20:04 32° W 00:20:49 36° WNW 00:24:15 10° N
Cosmos 1503 Rocket 4.0 00:21:17 35° SSW 00:23:40 82° WNW 00:29:05 10° NNE
Cosmos 2026 Rocket 4.1 00:19:46 10° N 00:25:51 69° ENE 00:29:55 22° SSE
Cosmos 1536 Rocket 3.5 00:22:14 10° N 00:26:36 84° ENE 00:28:12 39° SSE
Meteor 2-9 Rocket 4.4 00:27:29 32° SW 00:30:04 63° WNW 00:35:47 10° N
Cosmos 1782 Rocket 4.2 00:30:21 32° WSW 00:31:48 44° WNW 00:35:59 10° N
Cosmos 1980 3.7 00:26:17 10° NW 00:31:56 66° WSW 00:34:48 29° S
Cosmos 2297 Rocket 3.1 00:30:52 25° SSE 00:33:25 38° ESE 00:38:36 10° NE
Cosmos 2333 Rocket 3.3 00:29:44 10° NW 00:34:27 27° WSW 00:35:43 24° SW
Cosmos 1634 Rocket 4.4 00:31:20 24° SSE 00:35:04 57° E 00:41:09 10° NNE
Cosmos 2219 3.8 00:32:41 28° SSE 00:35:10 44° ESE 00:40:29 10° NE
Cosmos 1464 Rocket 4.3 00:34:33 28° SW 00:37:49 57° WNW 00:43:56 10° N
Cosmos 1626 4.0 00:35:54 10° N 00:39:09 27° ENE 00:42:03 12° SE
ERBS 2.5 00:35:53 10° WNW 00:38:34 50° W 00:38:34 50° W
MOZ.5/SAFIR/RUBIN 5/SL-8 3.7 00:38:19 32° SSE 00:40:35 86° WSW 00:45:23 10° NNW
Cosmos 2237 Rocket 2.2 00:36:08 10° NW 00:41:43 60° WSW 00:44:31 29° S
Cosmos 1975 4.1 00:41:49 25° WSW 00:43:08 30° WNW 00:46:45 10° N
Cosmos 1437 3.1 00:41:19 10° NNW 00:43:59 44° W 00:43:59 44° W
Helios 1B rocket 2.9 00:48:00 10° N 00:51:58 50° WNW 00:53:28 32° WSW
Cosmos 1607 4.0 00:48:44 10° NW 00:55:12 87° SW 01:01:42 10° SE
Cosmos 1538 Rocket 4.1 00:52:31 10° NNW 00:57:35 55° WSW 00:59:58 29° S
In-Cosmos 22 4.4 00:52:58 10° NNW 00:58:28 55° W 01:01:07 29° SSW
ATLAS 3B R/B 3.2 00:54:43 10° WSW 01:01:10 55° NNW 01:07:47 10° NE
CZ-4C R/B 2.9 01:00:00 39° SSE 01:01:12 86° WSW 01:04:47 10° NNW
USA 215 4.4 00:58:01 10° ENE 01:03:29 27° SE 01:06:48 18° S
Cosmos 1707 3.9 01:00:10 10° NNW 01:03:33 28° W 01:04:13 26° WSW
Okean 2 Rocket 3.5 01:02:15 31° SW 01:04:05 52° WNW 01:08:30 10° N
SL-16 R/B 2.5 00:59:59 21° S 01:04:19 74° WSW 01:10:37 10° NNW
COBE Rocket 4.3 01:00:27 13° SSE 01:04:29 57° ENE 01:09:03 10° N
Cosmos 1428 Rocket 4.5 00:58:21 10° NNW 01:04:36 74° W 01:08:43 23° S
Cosmos 2034 Rocket 4.5 01:02:10 25° SW 01:05:43 51° WNW 01:11:53 10° N
Cosmos 1092 Rocket 4.3 01:03:14 10° NNW 01:09:17 52° W 01:12:41 25° SSW
FALCON 9 DEB 3.1 01:08:43 18° W 01:11:05 57° SSW 01:14:30 10° ESE
Resurs 1-4 Rocket 2.2 01:05:54 10° NNE 01:11:13 72° ESE 01:14:25 24° S
Cosmos 1805 3.4 01:13:32 30° S 01:15:20 68° E 01:19:14 10° NNE
Cosmos 1300 Rocket 4.2 01:13:42 28° SW 01:15:31 42° WNW 01:19:39 10° N
SL-14 R/B 3.7 01:12:31 10° N 01:16:27 60° ENE 01:19:22 17° SSE
Cosmos 1674 2.9 01:16:48 10° NNW 01:20:25 49° W 01:21:38 34° SSW
Uosat 12 SS-18 rocket 4.4 01:18:27 28° SSW 01:20:54 61° SE 01:25:16 10° NE
Okean 1 Rocket 3.0 01:18:56 28° S 01:21:10 88° E 01:25:33 10° NNE
Meteor 1-15 Rocket 4.2 01:17:58 25° SSW 01:21:28 88° W 01:27:07 10° NNE
Cosmos 1655 Rocket 4.1 01:15:25 10° N 01:21:45 77° ENE 01:27:59 10° SSE
Cosmos 2227 Rocket 2.3 01:19:04 25° SSW 01:22:28 69° ESE 01:28:08 10° NE
Cosmos 2112 Rocket 4.0 01:17:45 10° NNW 01:23:02 84° ENE 01:28:15 10° SSE
AQUA 4.0 01:20:52 10° NNE 01:25:38 66° ESE 01:28:45 21° S
Cosmos 1733 3.4 01:27:32 25° S 01:29:36 68° E 01:33:27 10° NNE
UNK 4.1 01:27:34 26° SSW 01:29:51 46° W 01:34:23 10° NNW
Cosmos 2151 Rocket 4.4 01:33:15 23° WSW 01:35:25 37° WNW 01:39:33 10° N
Cosmos 2219 Rocket 4.2 01:34:53 10° W 01:35:33 10° W 01:36:15 10° W
ARIANE 5 R/B 4.0 01:32:23 10° NNE 01:37:03 32° E 01:41:41 10° SSE
Meteor 2-19 Rocket 4.4 01:32:35 10° NNW 01:38:47 82° W 01:44:42 11° S
CENTAUR R/B 4.1 01:32:24 10° WNW 01:38:55 41° N 01:46:28 10° ENE
USA 267 3.2 01:32:22 10° ESE 01:38:56 80° SSW 01:45:32 10° WNW
Cosmos 1680 Rocket 3.5 01:35:17 10° NNW 01:40:30 67° WSW 01:45:40 10° SSE
SJ 16-02 1.7 01:40:06 20° S 01:42:59 60° ESE 01:47:22 10° NNE
Cosmos 2082 4.0 01:39:45 19° S 01:43:45 60° ESE 01:49:17 10° NE
Cosmos 1726 4.4 01:43:24 10° SE 01:46:10 20° E 01:48:56 10° NE
IDEFIX/ARIANE 42P 4.4 01:41:59 10° NE 01:46:21 26° E 01:50:42 10° SSE
Timation 2 Rocket 4.3 01:44:08 17° WSW 01:48:50 56° NW 01:54:47 10° NNE
Cosmos 724 4.4 01:44:57 10° NW 01:50:58 88° NE 01:57:05 10° SE
SL-16 R/B 2.5 01:45:33 10° NW 01:51:01 48° WSW 01:56:27 10° S
Cosmos 1626 Rocket 4.4 01:47:25 10° N 01:51:40 49° ENE 01:55:51 10° SSE
Cosmos 1340 Rocket 3.9 01:48:30 11° SSE 01:52:07 39° E 01:55:50 10° NNE
SL-4 R/B 3.1 01:54:33 18° S 01:54:33 18° S 01:56:01 10° SSE
CZ-2D R/B 2.4 01:48:24 10° N 01:53:49 61° WNW 01:57:48 18° SW
Meteor 1-24 Rocket 3.7 01:48:45 10° NNW 01:54:11 59° W 01:58:47 14° S
IRS-1D 3.6 01:49:14 10° NNE 01:54:17 79° ESE 01:58:31 15° SSW
GEOS 3 Rocket 3.9 01:49:14 10° NE 01:54:36 69° NW 01:59:07 15° WSW
Cosmos 1455 Rocket 3.4 01:51:23 14° S 01:55:07 64° E 01:59:32 10° NNE
NPP 3.8 01:49:54 10° NNE 01:55:16 67° WNW 01:59:17 18° SSW
Cosmos 1461 4.0 01:52:47 16° S 01:55:46 38° ESE 02:00:01 10° NE
SL-08 R/B 3.5 01:51:11 10° SSE 01:56:09 84° ENE 02:01:08 10° NNW
ADEOS II 2.3 01:51:30 10° NNE 01:56:47 73° ESE 02:01:26 13° S
Lacrosse 4 Rocket 3.6 01:55:08 10° WNW 01:58:17 20° NNW 02:01:25 10° NNE
Cosmos 1892 Rocket 3.7 01:55:00 10° NNW 01:59:25 58° W 02:03:00 15° S
Cosmos 1953 4.2 01:56:36 10° SSE 02:00:01 27° E 02:03:30 10° NNE
CZ-4B R/B 3.3 01:55:18 10° NNE 02:00:08 85° WNW 02:03:51 17° SSW
Meteor 2-5 Rocket 4.2 01:56:34 10° NNW 02:01:52 42° W 02:05:59 16° SSW
USA 229 DEB 4.4 02:05:21 12° S 02:11:07 43° ESE 02:17:34 10° NE
IRS-1C 4.4 02:05:46 10° NNE 02:11:08 70° ESE 02:16:27 10° S
USA 229 4.5 02:05:27 11° S 02:11:12 43° ESE 02:17:37 10° NE
Cosmos 2279 Rocket 4.3 02:09:05 16° SW 02:14:00 53° WNW 02:20:06 10° N
Cosmos 2263 Rocket 3.6 02:09:21 10° SSE 02:14:09 31° ESE 02:19:00 10° NE
Cosmos 1626 3.1 02:11:07 10° NNW 02:14:25 31° W 02:16:34 17° SW
Cosmos 2297 Rocket 2.7 02:12:41 14° WSW 02:17:21 52° NW 02:22:54 10° NNE
Cosmos 2098 Rocket 3.6 02:13:51 10° NNW 02:18:23 57° W 02:24:04 10° S
Cosmos 2219 3.9 02:14:36 13° WSW 02:19:22 46° NW 02:24:47 10° NNE
Cosmos 1766 4.2 02:17:11 16° SW 02:19:43 33° WNW 02:23:16 10° N
Meteor 1-22 Rocket 4.3 02:19:30 14° SSW 02:23:58 59° WNW 02:29:16 10° N
Cosmos 2237 Rocket 4.0 02:22:35 10° WNW 02:24:36 12° W 02:26:18 11° WSW
Meteor 1-28 Rocket 3.3 02:21:16 10° S 02:25:01 59° W 02:28:49 10° NNW
Cosmos 1603 3.7 02:25:04 10° NW 02:30:49 75° WSW 02:36:31 10° SSE
H-2A R/B 2.3 02:27:50 10° SSE 02:31:55 70° ENE 02:36:01 10° NNW
Cosmos 1470 2.9 02:32:06 12° SSW 02:35:46 62° WNW 02:39:45 10° N
SeaSat 1 4.3 02:33:18 10° NE 02:37:27 26° ESE 02:41:35 10° SSE
Cosmos 1544 Rocket 3.7 02:37:20 10° SSW 02:41:48 67° WNW 02:46:17 10° N
Spot 4 Rocket 4.3 02:37:45 10° NNE 02:42:56 72° ESE 02:48:06 10° S
USA 215 3.4 02:40:45 10° ENE 02:47:18 69° SSE 02:53:49 10° SW
SL-16 R/B 4.1 02:45:13 10° WSW 02:49:02 17° W 02:52:53 10° NW
IRS-P3 4.3 02:44:41 10° N 02:49:59 61° WNW 02:55:14 10° SW
Resurs 1-4 Rocket 3.5 02:46:21 10° N 02:50:37 25° NW 02:54:50 10° WSW
Cosmos 1048 Rocket 4.1 02:46:17 10° NNW 02:51:27 82° ENE 02:56:37 10° SSE
ATLAS 3B R/B 4.1 02:47:02 10° WNW 02:53:08 36° N 02:59:23 10° ENE
Cosmos 1943 3.3 02:51:25 10° NW 02:56:56 58° WSW 03:02:26 10° SSE
Cosmos 1602 Rocket 3.7 02:52:42 10° NNW 02:56:59 54° W 03:01:13 10° S
Exosat Rocket 4.4 02:52:20 10° SSW 03:00:57 88° WNW 03:07:00 10° NNE
Cosmos 1745 Rocket 4.4 02:55:23 10° N 03:01:43 71° ENE 03:07:57 10° SSE
Meteor 2-16 Rocket 4.5 03:00:33 10° NNW 03:06:41 69° W 03:12:47 10° S
Cosmos 2227 Rocket 3.3 03:01:53 10° WSW 03:07:00 33° NW 03:12:07 10° NNE
